Year,Month,Day,Hour,Minute,Value (Times are PST for windspeed in km/hr)
2016,11,03,00,00,4.40
2016,11,03,00,01,4.70
2016,11,03,00,02,4.30
2016,11,03,00,03,3.90
2016,11,03,00,04,4.80
2016,11,03,00,05,3.90
2016,11,03,00,06,4.70
2016,11,03,00,07,4.30
2016,11,03,00,08,5.50
2016,11,03,00,09,3.60
2016,11,03,00,10,8.10
2016,11,03,00,11,4.80
2016,11,03,00,12,4.70
2016,11,03,00,13,5.60
2016,11,03,00,14,3.90
2016,11,03,00,15,4.10
2016,11,03,00,16,4.80
2016,11,03,00,17,4.50
2016,11,03,00,18,3.60
2016,11,03,00,19,3.00
2016,11,03,00,20,4.10
2016,11,03,00,21,2.80
2016,11,03,00,22,2.50
2016,11,03,00,23,2.10
2016,11,03,00,24,2.80
2016,11,03,00,25,2.40
2016,11,03,00,26,2.30
2016,11,03,00,27,2.90
2016,11,03,00,28,3.00
2016,11,03,00,29,2.50
2016,11,03,00,30,1.50
2016,11,03,00,31,1.50
2016,11,03,00,32,2.10
2016,11,03,00,33,3.00
2016,11,03,00,34,2.80
2016,11,03,00,35,3.30
2016,11,03,00,36,2.60
2016,11,03,00,37,4.40
2016,11,03,00,38,2.60
2016,11,03,00,39,3.20
2016,11,03,00,40,3.50
2016,11,03,00,41,3.20
2016,11,03,00,42,2.70
2016,11,03,00,43,2.60
2016,11,03,00,44,2.60
2016,11,03,00,45,2.60
2016,11,03,00,46,1.80
2016,11,03,00,47,2.10
2016,11,03,00,48,2.40
2016,11,03,00,49,2.60
2016,11,03,00,50,2.60
2016,11,03,00,51,1.90
2016,11,03,00,52,2.20
2016,11,03,00,53,4.10
2016,11,03,00,54,2.40
2016,11,03,00,55,3.00
2016,11,03,00,56,2.30
2016,11,03,00,57,2.50
2016,11,03,00,58,1.30
2016,11,03,00,59,2.60
2016,11,03,01,00,2.60
2016,11,03,01,01,2.50
2016,11,03,01,02,1.90
2016,11,03,01,03,2.60
2016,11,03,01,04,1.40
2016,11,03,01,05,2.30
2016,11,03,01,06,4.20
2016,11,03,01,07,2.60
2016,11,03,01,08,2.10
2016,11,03,01,09,2.50
2016,11,03,01,10,2.50
2016,11,03,01,11,2.80
2016,11,03,01,12,2.10
2016,11,03,01,13,2.80
2016,11,03,01,14,2.70
2016,11,03,01,15,2.90
2016,11,03,01,16,1.90
2016,11,03,01,17,2.00
2016,11,03,01,18,3.10
2016,11,03,01,19,2.80
2016,11,03,01,20,2.60
2016,11,03,01,21,2.30
2016,11,03,01,22,2.90
2016,11,03,01,23,2.50
2016,11,03,01,24,3.00
2016,11,03,01,25,2.30
2016,11,03,01,26,2.00
2016,11,03,01,27,1.50
2016,11,03,01,28,3.40
2016,11,03,01,29,2.90
2016,11,03,01,30,2.30
2016,11,03,01,31,1.90
2016,11,03,01,32,2.40
2016,11,03,01,33,2.70
2016,11,03,01,34,2.10
2016,11,03,01,35,2.40
2016,11,03,01,36,2.20
2016,11,03,01,37,2.60
2016,11,03,01,38,3.40
2016,11,03,01,39,2.40
2016,11,03,01,40,2.00
2016,11,03,01,41,2.60
2016,11,03,01,42,2.60
2016,11,03,01,43,3.30
2016,11,03,01,44,2.60
2016,11,03,01,45,2.10
2016,11,03,01,46,2.30
2016,11,03,01,47,2.30
2016,11,03,01,48,2.30
2016,11,03,01,49,4.80
2016,11,03,01,50,3.00
2016,11,03,01,51,2.60
2016,11,03,01,52,2.50
2016,11,03,01,53,2.00
2016,11,03,01,54,2.00
2016,11,03,01,55,2.20
2016,11,03,01,56,2.40
2016,11,03,01,57,3.30
2016,11,03,01,58,12.40
2016,11,03,01,59,11.20
2016,11,03,02,00,6.70
2016,11,03,02,01,3.70
2016,11,03,02,02,3.70
2016,11,03,02,03,3.30
2016,11,03,02,04,3.10
2016,11,03,02,05,3.60
2016,11,03,02,06,2.70
2016,11,03,02,07,2.90
2016,11,03,02,08,2.70
2016,11,03,02,09,2.80
2016,11,03,02,10,4.30
2016,11,03,02,11,10.30
2016,11,03,02,12,6.30
2016,11,03,02,13,13.60
2016,11,03,02,14,9.50
2016,11,03,02,15,5.80
2016,11,03,02,16,4.70
2016,11,03,02,17,4.00
2016,11,03,02,18,3.20
2016,11,03,02,19,3.10
2016,11,03,02,20,3.00
2016,11,03,02,21,3.10
2016,11,03,02,22,9.90
2016,11,03,02,23,5.70
2016,11,03,02,24,4.80
2016,11,03,02,25,4.00
2016,11,03,02,26,4.10
2016,11,03,02,27,6.00
2016,11,03,02,28,9.30
2016,11,03,02,29,11.00
2016,11,03,02,30,16.00
2016,11,03,02,31,10.80
2016,11,03,02,32,4.70
2016,11,03,02,33,2.80
2016,11,03,02,34,2.50
2016,11,03,02,35,7.30
2016,11,03,02,36,13.30
2016,11,03,02,37,13.70
2016,11,03,02,38,12.50
2016,11,03,02,39,12.00
2016,11,03,02,40,8.00
2016,11,03,02,41,1.90
2016,11,03,02,42,2.80
2016,11,03,02,43,2.20
2016,11,03,02,44,2.10
2016,11,03,02,45,2.60
2016,11,03,02,46,1.80
2016,11,03,02,47,2.00
2016,11,03,02,48,2.70
2016,11,03,02,49,3.50
2016,11,03,02,50,3.10
2016,11,03,02,51,3.20
2016,11,03,02,52,2.70
2016,11,03,02,53,2.90
2016,11,03,02,54,3.70
2016,11,03,02,55,5.50
2016,11,03,02,56,5.30
2016,11,03,02,57,5.10
2016,11,03,02,58,5.70
2016,11,03,02,59,14.60
2016,11,03,03,00,18.60
2016,11,03,03,01,24.10
2016,11,03,03,02,20.10
2016,11,03,03,03,16.30
2016,11,03,03,04,15.50
2016,11,03,03,05,10.50
2016,11,03,03,06,12.50
2016,11,03,03,07,8.20
2016,11,03,03,08,1.90
2016,11,03,03,09,3.40
2016,11,03,03,10,3.40
2016,11,03,03,11,6.50
2016,11,03,03,12,2.70
2016,11,03,03,13,7.20
2016,11,03,03,14,14.60
2016,11,03,03,15,7.80
2016,11,03,03,16,13.00
2016,11,03,03,17,10.70
2016,11,03,03,18,4.90
2016,11,03,03,19,7.50
2016,11,03,03,20,6.40
2016,11,03,03,21,6.80
2016,11,03,03,22,7.50
2016,11,03,03,23,4.40
2016,11,03,03,24,4.20
2016,11,03,03,25,4.30
2016,11,03,03,26,4.00
2016,11,03,03,27,3.80
2016,11,03,03,28,2.60
2016,11,03,03,29,0.60
2016,11,03,03,30,1.30
2016,11,03,03,31,1.70
2016,11,03,03,32,2.60
2016,11,03,03,33,2.50
2016,11,03,03,34,2.80
2016,11,03,03,35,3.10
2016,11,03,03,36,4.70
2016,11,03,03,37,5.00
2016,11,03,03,38,4.30
2016,11,03,03,39,4.70
2016,11,03,03,40,4.10
2016,11,03,03,41,6.60
2016,11,03,03,42,7.10
2016,11,03,03,43,12.20
2016,11,03,03,44,14.20
2016,11,03,03,45,17.90
2016,11,03,03,46,20.90
2016,11,03,03,47,25.40
2016,11,03,03,48,21.20
2016,11,03,03,49,18.60
2016,11,03,03,50,19.10
2016,11,03,03,51,16.80
2016,11,03,03,52,16.60
2016,11,03,03,53,12.30
2016,11,03,03,54,11.20
2016,11,03,03,55,12.60
2016,11,03,03,56,13.80
2016,11,03,03,57,21.60
2016,11,03,03,58,17.50
2016,11,03,03,59,18.50
2016,11,03,04,00,18.20
2016,11,03,04,01,18.90
2016,11,03,04,02,15.70
2016,11,03,04,03,10.00
2016,11,03,04,04,7.10
2016,11,03,04,05,6.30
2016,11,03,04,06,13.10
2016,11,03,04,07,15.80
2016,11,03,04,08,15.60
2016,11,03,04,09,16.10
2016,11,03,04,10,15.20
2016,11,03,04,11,16.00
2016,11,03,04,12,17.50
2016,11,03,04,13,7.60
2016,11,03,04,14,14.00
2016,11,03,04,15,16.70
2016,11,03,04,16,19.10
2016,11,03,04,17,19.60
2016,11,03,04,18,17.50
2016,11,03,04,19,14.60
2016,11,03,04,20,12.00
2016,11,03,04,21,13.60
2016,11,03,04,22,17.90
2016,11,03,04,23,22.60
2016,11,03,04,24,22.40
2016,11,03,04,25,20.20
2016,11,03,04,26,18.30
2016,11,03,04,27,21.30
2016,11,03,04,28,21.70
2016,11,03,04,29,18.80
2016,11,03,04,30,20.50
2016,11,03,04,31,20.60
2016,11,03,04,32,16.00
2016,11,03,04,33,12.90
2016,11,03,04,34,19.70
2016,11,03,04,35,20.50
2016,11,03,04,36,21.50
2016,11,03,04,37,16.70
2016,11,03,04,38,19.20
2016,11,03,04,39,11.40
2016,11,03,04,40,20.60
2016,11,03,04,41,19.60
2016,11,03,04,42,19.60
2016,11,03,04,43,20.20
2016,11,03,04,44,13.80
2016,11,03,04,45,8.50
2016,11,03,04,46,4.30
2016,11,03,04,47,4.00
2016,11,03,04,48,4.60
2016,11,03,04,49,9.00
2016,11,03,04,50,6.80
2016,11,03,04,51,7.40
2016,11,03,04,52,12.60
2016,11,03,04,53,13.90
2016,11,03,04,54,8.60
2016,11,03,04,55,7.00
2016,11,03,04,56,9.70
2016,11,03,04,57,14.50
2016,11,03,04,58,13.20
2016,11,03,04,59,14.20
2016,11,03,05,00,8.10
2016,11,03,05,01,12.80
2016,11,03,05,02,19.70
2016,11,03,05,03,25.40
2016,11,03,05,04,19.50
2016,11,03,05,05,12.80
2016,11,03,05,06,16.30
2016,11,03,05,07,12.00
2016,11,03,05,08,9.60
2016,11,03,05,09,9.20
2016,11,03,05,10,6.60
2016,11,03,05,11,14.20
2016,11,03,05,12,22.30
2016,11,03,05,13,13.60
2016,11,03,05,14,8.60
2016,11,03,05,15,5.20
2016,11,03,05,16,4.80
2016,11,03,05,17,5.10
2016,11,03,05,18,14.30
2016,11,03,05,19,8.80
2016,11,03,05,20,9.50
2016,11,03,05,21,8.90
2016,11,03,05,22,11.30
2016,11,03,05,23,8.60
2016,11,03,05,24,10.50
2016,11,03,05,25,15.30
2016,11,03,05,26,9.30
2016,11,03,05,27,6.10
2016,11,03,05,28,16.20
2016,11,03,05,29,15.00
2016,11,03,05,30,21.80
2016,11,03,05,31,18.00
2016,11,03,05,32,16.40
2016,11,03,05,33,12.50
2016,11,03,05,34,9.80
2016,11,03,05,35,4.90
2016,11,03,05,36,5.10
2016,11,03,05,37,5.80
2016,11,03,05,38,13.30
2016,11,03,05,39,12.80
2016,11,03,05,40,6.80
2016,11,03,05,41,16.60
2016,11,03,05,42,12.50
2016,11,03,05,43,25.30
2016,11,03,05,44,21.20
2016,11,03,05,45,17.80
2016,11,03,05,46,24.00
2016,11,03,05,47,28.60
2016,11,03,05,48,19.80
2016,11,03,05,49,13.80
2016,11,03,05,50,10.60
2016,11,03,05,51,3.80
2016,11,03,05,52,8.90
2016,11,03,05,53,3.50
2016,11,03,05,54,3.50
2016,11,03,05,55,3.60
2016,11,03,05,56,4.30
2016,11,03,05,57,6.90
2016,11,03,05,58,3.60
2016,11,03,05,59,5.80
2016,11,03,06,00,3.40
2016,11,03,06,01,3.60
2016,11,03,06,02,3.40
2016,11,03,06,03,5.00
2016,11,03,06,04,8.90
2016,11,03,06,05,10.80
2016,11,03,06,06,21.60
2016,11,03,06,07,18.70
2016,11,03,06,08,18.70
2016,11,03,06,09,13.00
2016,11,03,06,10,18.60
2016,11,03,06,11,22.50
2016,11,03,06,12,20.20
2016,11,03,06,13,20.60
2016,11,03,06,14,18.40
2016,11,03,06,15,17.30
2016,11,03,06,16,13.10
2016,11,03,06,17,17.50
2016,11,03,06,18,19.00
2016,11,03,06,19,14.20
2016,11,03,06,20,14.10
2016,11,03,06,21,13.00
2016,11,03,06,22,8.40
2016,11,03,06,23,8.40
2016,11,03,06,24,11.70
2016,11,03,06,25,6.70
2016,11,03,06,26,6.90
2016,11,03,06,27,10.70
2016,11,03,06,28,10.10
2016,11,03,06,29,14.10
2016,11,03,06,30,9.90
2016,11,03,06,31,15.40
2016,11,03,06,32,15.40
2016,11,03,06,33,19.10
2016,11,03,06,34,19.60
2016,11,03,06,35,16.50
2016,11,03,06,36,15.40
2016,11,03,06,37,11.10
2016,11,03,06,38,11.30
2016,11,03,06,39,18.20
2016,11,03,06,40,16.40
2016,11,03,06,41,15.00
2016,11,03,06,42,10.70
2016,11,03,06,43,19.20
2016,11,03,06,44,17.70
2016,11,03,06,45,16.50
2016,11,03,06,46,12.60
2016,11,03,06,47,20.40
2016,11,03,06,48,20.30
2016,11,03,06,49,17.90
2016,11,03,06,50,20.00
2016,11,03,06,51,17.40
2016,11,03,06,52,12.20
2016,11,03,06,53,13.00
2016,11,03,06,54,8.80
2016,11,03,06,55,8.90
2016,11,03,06,56,6.70
2016,11,03,06,57,11.10
2016,11,03,06,58,15.00
2016,11,03,06,59,9.40
2016,11,03,07,00,12.30
2016,11,03,07,01,7.50
2016,11,03,07,02,14.10
2016,11,03,07,03,13.10
2016,11,03,07,04,16.40
2016,11,03,07,05,14.60
2016,11,03,07,06,7.80
2016,11,03,07,07,12.30
2016,11,03,07,08,8.60
2016,11,03,07,09,13.50
2016,11,03,07,10,23.20
2016,11,03,07,11,22.40
2016,11,03,07,12,17.70
2016,11,03,07,13,20.80
2016,11,03,07,14,16.60
2016,11,03,07,15,13.80
2016,11,03,07,16,13.40
2016,11,03,07,17,19.50
2016,11,03,07,18,15.40
2016,11,03,07,19,17.60
2016,11,03,07,20,22.20
2016,11,03,07,21,24.10
2016,11,03,07,22,19.90
2016,11,03,07,23,17.30
2016,11,03,07,24,22.60
2016,11,03,07,25,16.30
2016,11,03,07,26,21.10
2016,11,03,07,27,24.10
2016,11,03,07,28,26.60
2016,11,03,07,29,20.80
2016,11,03,07,30,25.40
2016,11,03,07,31,23.70
2016,11,03,07,32,19.80
2016,11,03,07,33,20.50
2016,11,03,07,34,22.50
2016,11,03,07,35,21.00
2016,11,03,07,36,17.60
2016,11,03,07,37,19.80
2016,11,03,07,38,22.60
2016,11,03,07,39,23.50
2016,11,03,07,40,24.20
2016,11,03,07,41,18.10
2016,11,03,07,42,13.90
2016,11,03,07,43,19.50
2016,11,03,07,44,23.20
2016,11,03,07,45,17.50
2016,11,03,07,46,23.70
2016,11,03,07,47,28.90
2016,11,03,07,48,26.10
2016,11,03,07,49,15.00
2016,11,03,07,50,14.60
2016,11,03,07,51,21.60
2016,11,03,07,52,18.40
2016,11,03,07,53,16.90
2016,11,03,07,54,21.00
2016,11,03,07,55,22.80
2016,11,03,07,56,27.70
2016,11,03,07,57,32.20
2016,11,03,07,58,31.60
2016,11,03,07,59,23.80
2016,11,03,08,00,22.30
2016,11,03,08,01,24.10
2016,11,03,08,02,27.00
2016,11,03,08,03,26.30
2016,11,03,08,04,29.00
2016,11,03,08,05,27.20
2016,11,03,08,06,24.60
2016,11,03,08,07,21.80
2016,11,03,08,08,21.30
2016,11,03,08,09,21.80
2016,11,03,08,10,21.20
2016,11,03,08,11,27.30
2016,11,03,08,12,28.60
2016,11,03,08,13,25.30
2016,11,03,08,14,22.20
2016,11,03,08,15,26.30
2016,11,03,08,16,29.00
2016,11,03,08,17,28.70
2016,11,03,08,18,25.90
2016,11,03,08,19,18.20
2016,11,03,08,20,22.10
2016,11,03,08,21,19.00
2016,11,03,08,22,27.50
2016,11,03,08,23,24.10
2016,11,03,08,24,22.90
2016,11,03,08,25,23.00
2016,11,03,08,26,18.50
2016,11,03,08,27,27.40
2016,11,03,08,28,21.40
2016,11,03,08,29,15.90
2016,11,03,08,30,24.50
2016,11,03,08,31,27.00
2016,11,03,08,32,27.20
2016,11,03,08,33,19.10
2016,11,03,08,34,31.40
2016,11,03,08,35,23.40
2016,11,03,08,36,29.70
2016,11,03,08,37,22.90
2016,11,03,08,38,22.50
2016,11,03,08,39,18.90
2016,11,03,08,40,23.10
2016,11,03,08,41,23.70
2016,11,03,08,42,26.20
2016,11,03,08,43,24.40
2016,11,03,08,44,30.50
2016,11,03,08,45,31.50
2016,11,03,08,46,28.60
2016,11,03,08,47,30.40
2016,11,03,08,48,35.10
2016,11,03,08,49,31.40
2016,11,03,08,50,27.70
2016,11,03,08,51,22.00
2016,11,03,08,52,21.90
2016,11,03,08,53,15.80
2016,11,03,08,54,18.50
2016,11,03,08,55,21.40
2016,11,03,08,56,26.90
2016,11,03,08,57,18.20
2016,11,03,08,58,20.60
2016,11,03,08,59,19.80
2016,11,03,09,00,17.90
2016,11,03,09,01,18.50
2016,11,03,09,02,22.60
2016,11,03,09,03,17.60
2016,11,03,09,04,21.90
2016,11,03,09,05,26.20
2016,11,03,09,06,26.20
2016,11,03,09,07,24.40
2016,11,03,09,08,27.50
2016,11,03,09,09,20.40
2016,11,03,09,10,20.10
2016,11,03,09,11,24.10
2016,11,03,09,12,27.90
2016,11,03,09,13,26.20
2016,11,03,09,14,24.60
2016,11,03,09,15,26.10
2016,11,03,09,16,28.90
2016,11,03,09,17,29.80
2016,11,03,09,18,32.50
2016,11,03,09,19,27.50
2016,11,03,09,20,28.20
2016,11,03,09,21,27.40
2016,11,03,09,22,31.10
2016,11,03,09,23,29.60
2016,11,03,09,24,27.50
2016,11,03,09,25,30.80
2016,11,03,09,26,20.00
2016,11,03,09,27,22.60
2016,11,03,09,28,24.50
2016,11,03,09,29,28.80
2016,11,03,09,30,25.80
2016,11,03,09,31,29.70
2016,11,03,09,32,22.10
2016,11,03,09,33,22.60
2016,11,03,09,34,22.30
2016,11,03,09,35,22.40
2016,11,03,09,36,23.70
2016,11,03,09,37,22.90
2016,11,03,09,38,31.60
2016,11,03,09,39,35.30
2016,11,03,09,40,31.10
2016,11,03,09,41,29.80
2016,11,03,09,42,34.20
2016,11,03,09,43,35.00
2016,11,03,09,44,24.20
2016,11,03,09,45,30.40
2016,11,03,09,46,33.30
2016,11,03,09,47,32.70
2016,11,03,09,48,42.00
2016,11,03,09,49,33.90
2016,11,03,09,50,29.80
2016,11,03,09,51,29.50
2016,11,03,09,52,27.40
2016,11,03,09,53,23.30
2016,11,03,09,54,20.10
2016,11,03,09,55,23.60
2016,11,03,09,56,24.60
2016,11,03,09,57,23.70
2016,11,03,09,58,21.30
2016,11,03,09,59,20.60
2016,11,03,10,00,18.20
2016,11,03,10,01,18.80
2016,11,03,10,02,22.40
2016,11,03,10,03,21.60
2016,11,03,10,04,28.90
2016,11,03,10,05,28.50
2016,11,03,10,06,29.70
2016,11,03,10,07,34.20
2016,11,03,10,08,37.80
2016,11,03,10,09,28.30
2016,11,03,10,10,38.30
2016,11,03,10,11,37.30
2016,11,03,10,12,30.20
2016,11,03,10,13,30.10
2016,11,03,10,14,28.90
2016,11,03,10,15,31.60
2016,11,03,10,16,28.00
2016,11,03,10,17,23.00
2016,11,03,10,18,22.80
2016,11,03,10,19,26.00
2016,11,03,10,20,29.00
2016,11,03,10,21,24.60
2016,11,03,10,22,18.60
2016,11,03,10,23,22.80
2016,11,03,10,24,29.40
2016,11,03,10,25,35.10
2016,11,03,10,26,29.10
2016,11,03,10,27,26.40
2016,11,03,10,28,34.80
2016,11,03,10,29,28.80
2016,11,03,10,30,32.70
2016,11,03,10,31,31.40
2016,11,03,10,32,32.70
2016,11,03,10,33,22.70
2016,11,03,10,34,30.80
2016,11,03,10,35,27.10
2016,11,03,10,36,19.10
2016,11,03,10,37,23.90
2016,11,03,10,38,22.10
2016,11,03,10,39,26.40
2016,11,03,10,40,29.50
2016,11,03,10,41,23.10
2016,11,03,10,42,22.60
2016,11,03,10,43,25.60
2016,11,03,10,44,28.60
2016,11,03,10,45,28.90
2016,11,03,10,46,24.10
2016,11,03,10,47,28.90
2016,11,03,10,48,27.30
2016,11,03,10,49,27.20
2016,11,03,10,50,28.40
2016,11,03,10,51,25.40
2016,11,03,10,52,18.70
2016,11,03,10,53,22.10
2016,11,03,10,54,22.50
2016,11,03,10,55,27.80
2016,11,03,10,56,22.10
2016,11,03,10,57,30.80
2016,11,03,10,58,23.50
2016,11,03,10,59,27.20
2016,11,03,11,00,30.20
2016,11,03,11,01,26.70
2016,11,03,11,02,33.20
2016,11,03,11,03,31.40
2016,11,03,11,04,23.40
2016,11,03,11,05,27.20
2016,11,03,11,06,27.60
2016,11,03,11,07,29.00
2016,11,03,11,08,24.20
2016,11,03,11,09,21.70
2016,11,03,11,10,22.80
2016,11,03,11,11,28.20
2016,11,03,11,12,31.30
2016,11,03,11,13,24.20
2016,11,03,11,14,26.90
2016,11,03,11,15,18.50
2016,11,03,11,16,20.50
2016,11,03,11,17,27.70
2016,11,03,11,18,21.30
2016,11,03,11,19,25.10
2016,11,03,11,20,19.50
2016,11,03,11,21,20.20
2016,11,03,11,22,21.40
2016,11,03,11,23,16.20
2016,11,03,11,24,16.30
2016,11,03,11,25,22.40
2016,11,03,11,26,28.20
2016,11,03,11,27,23.00
2016,11,03,11,28,25.50
2016,11,03,11,29,20.20
2016,11,03,11,30,25.60
2016,11,03,11,31,23.30
2016,11,03,11,32,32.50
2016,11,03,11,33,28.20
2016,11,03,11,34,22.90
2016,11,03,11,35,23.40
2016,11,03,11,36,25.60
2016,11,03,11,37,20.40
2016,11,03,11,38,28.20
2016,11,03,11,39,26.60
2016,11,03,11,40,31.40
2016,11,03,11,41,24.60
2016,11,03,11,42,24.80
2016,11,03,11,43,25.20
2016,11,03,11,44,23.30
2016,11,03,11,45,23.00
2016,11,03,11,46,23.40
2016,11,03,11,47,21.20
2016,11,03,11,48,18.10
2016,11,03,11,49,18.70
2016,11,03,11,50,21.20
2016,11,03,11,51,27.80
2016,11,03,11,52,21.60
2016,11,03,11,53,20.30
2016,11,03,11,54,19.10
2016,11,03,11,55,21.40
2016,11,03,11,56,26.90
2016,11,03,11,57,24.40
2016,11,03,11,58,22.60
2016,11,03,11,59,21.30
2016,11,03,12,00,19.00
2016,11,03,12,01,20.90
2016,11,03,12,02,26.30
2016,11,03,12,03,22.90
2016,11,03,12,04,22.10
2016,11,03,12,05,22.50
2016,11,03,12,06,22.50
2016,11,03,12,07,24.30
2016,11,03,12,08,25.40
2016,11,03,12,09,24.10
2016,11,03,12,10,24.10
2016,11,03,12,11,22.40
2016,11,03,12,12,23.80
2016,11,03,12,13,24.70
2016,11,03,12,14,26.30
2016,11,03,12,15,29.10
2016,11,03,12,16,26.70
2016,11,03,12,17,24.50
2016,11,03,12,18,23.70
2016,11,03,12,19,21.70
2016,11,03,12,20,21.30
2016,11,03,12,21,27.90
2016,11,03,12,22,24.90
2016,11,03,12,23,26.50
2016,11,03,12,24,28.20
2016,11,03,12,25,26.60
2016,11,03,12,26,25.20
2016,11,03,12,27,17.50
2016,11,03,12,28,21.20
2016,11,03,12,29,22.50
2016,11,03,12,30,20.00
2016,11,03,12,31,20.80
2016,11,03,12,32,20.40
2016,11,03,12,33,22.70
2016,11,03,12,34,26.90
2016,11,03,12,35,21.70
2016,11,03,12,36,20.90
2016,11,03,12,37,16.70
2016,11,03,12,38,21.60
2016,11,03,12,39,24.30
2016,11,03,12,40,26.40
2016,11,03,12,41,21.70
2016,11,03,12,42,17.90
2016,11,03,12,43,20.50
2016,11,03,12,44,26.90
2016,11,03,12,45,27.80
2016,11,03,12,46,27.70
2016,11,03,12,47,23.30
2016,11,03,12,48,22.50
2016,11,03,12,49,19.30
2016,11,03,12,50,24.20
2016,11,03,12,51,26.50
2016,11,03,12,52,27.60
2016,11,03,12,53,23.80
2016,11,03,12,54,27.30
2016,11,03,12,55,22.60
2016,11,03,12,56,22.40
2016,11,03,12,57,19.20
2016,11,03,12,58,27.30
2016,11,03,12,59,18.00
2016,11,03,13,00,21.10
2016,11,03,13,01,22.40
2016,11,03,13,02,21.80
2016,11,03,13,03,20.00
2016,11,03,13,04,16.10
2016,11,03,13,05,16.60
2016,11,03,13,06,21.50
2016,11,03,13,07,22.60
2016,11,03,13,08,18.70
2016,11,03,13,09,17.50
2016,11,03,13,10,16.60
2016,11,03,13,11,18.30
2016,11,03,13,12,17.10
2016,11,03,13,13,18.20
2016,11,03,13,14,18.60
2016,11,03,13,15,14.00
2016,11,03,13,16,17.40
2016,11,03,13,17,17.90
2016,11,03,13,18,21.70
2016,11,03,13,19,17.10
2016,11,03,13,20,14.80
2016,11,03,13,21,16.90
2016,11,03,13,22,16.60
2016,11,03,13,23,18.70
2016,11,03,13,24,21.50
2016,11,03,13,25,19.20
2016,11,03,13,26,22.60
2016,11,03,13,27,17.90
2016,11,03,13,28,13.30
2016,11,03,13,29,18.20
2016,11,03,13,30,18.80
2016,11,03,13,31,14.60
2016,11,03,13,32,18.30
2016,11,03,13,33,16.20
2016,11,03,13,34,16.00
2016,11,03,13,35,18.10
2016,11,03,13,36,20.40
2016,11,03,13,37,20.80
2016,11,03,13,38,19.10
2016,11,03,13,39,19.60
2016,11,03,13,40,19.90
2016,11,03,13,41,16.30
2016,11,03,13,42,23.10
2016,11,03,13,43,16.30
2016,11,03,13,44,16.90
2016,11,03,13,45,20.00
2016,11,03,13,46,24.10
2016,11,03,13,47,20.00
2016,11,03,13,48,18.30
2016,11,03,13,49,18.20
2016,11,03,13,50,22.50
2016,11,03,13,51,20.20
2016,11,03,13,52,18.50
2016,11,03,13,53,19.10
2016,11,03,13,54,17.40
2016,11,03,13,55,25.80
2016,11,03,13,56,19.70
2016,11,03,13,57,19.60
2016,11,03,13,58,21.50
2016,11,03,13,59,17.20
2016,11,03,14,00,17.90
2016,11,03,14,01,18.60
2016,11,03,14,02,24.40
2016,11,03,14,03,19.50
2016,11,03,14,04,21.60
2016,11,03,14,05,23.00
2016,11,03,14,06,24.50
2016,11,03,14,07,18.60
2016,11,03,14,08,20.40
2016,11,03,14,09,21.60
2016,11,03,14,10,25.90
2016,11,03,14,11,23.30
2016,11,03,14,12,23.30
2016,11,03,14,13,19.60
2016,11,03,14,14,22.40
2016,11,03,14,15,20.80
2016,11,03,14,16,22.00
2016,11,03,14,17,24.70
2016,11,03,14,18,20.20
2016,11,03,14,19,25.00
2016,11,03,14,20,21.20
2016,11,03,14,21,25.70
2016,11,03,14,22,25.00
2016,11,03,14,23,20.20
2016,11,03,14,24,21.80
2016,11,03,14,25,21.70
2016,11,03,14,26,23.00
2016,11,03,14,27,23.10
2016,11,03,14,28,22.10
2016,11,03,14,29,22.20
2016,11,03,14,30,21.50
2016,11,03,14,31,23.50
2016,11,03,14,32,25.30
2016,11,03,14,33,26.70
2016,11,03,14,34,28.20
2016,11,03,14,35,21.90
2016,11,03,14,36,23.70
2016,11,03,14,37,19.70
2016,11,03,14,38,19.30
2016,11,03,14,39,17.80
2016,11,03,14,40,21.40
2016,11,03,14,41,20.40
2016,11,03,14,42,24.30
2016,11,03,14,43,24.80
2016,11,03,14,44,23.20
2016,11,03,14,45,24.60
2016,11,03,14,46,23.20
2016,11,03,14,47,20.60
2016,11,03,14,48,23.30
2016,11,03,14,49,20.40
2016,11,03,14,50,18.70
2016,11,03,14,51,19.30
2016,11,03,14,52,22.50
2016,11,03,14,53,25.50
2016,11,03,14,54,21.10
2016,11,03,14,55,22.50
2016,11,03,14,56,21.80
2016,11,03,14,57,22.10
2016,11,03,14,58,22.60
2016,11,03,14,59,24.50
2016,11,03,15,00,22.80
2016,11,03,15,01,21.70
2016,11,03,15,02,19.70
2016,11,03,15,03,22.10
2016,11,03,15,04,23.10
2016,11,03,15,05,27.30
2016,11,03,15,06,25.30
2016,11,03,15,07,21.90
2016,11,03,15,08,21.90
2016,11,03,15,09,22.40
2016,11,03,15,10,17.80
2016,11,03,15,11,19.20
2016,11,03,15,12,18.10
2016,11,03,15,13,20.60
2016,11,03,15,14,23.80
2016,11,03,15,15,23.70
2016,11,03,15,16,18.20
2016,11,03,15,17,18.00
2016,11,03,15,18,19.80
2016,11,03,15,19,16.30
2016,11,03,15,20,18.30
2016,11,03,15,21,18.30
2016,11,03,15,22,15.60
2016,11,03,15,23,19.70
2016,11,03,15,24,17.70
2016,11,03,15,25,18.70
2016,11,03,15,26,17.90
2016,11,03,15,27,16.30
2016,11,03,15,28,20.00
2016,11,03,15,29,21.40
2016,11,03,15,30,21.30
2016,11,03,15,31,20.40
2016,11,03,15,32,22.40
2016,11,03,15,33,24.10
2016,11,03,15,34,26.40
2016,11,03,15,35,20.70
2016,11,03,15,36,15.80
2016,11,03,15,37,19.60
2016,11,03,15,38,24.50
2016,11,03,15,39,22.10
2016,11,03,15,40,20.20
2016,11,03,15,41,22.10
2016,11,03,15,42,26.90
2016,11,03,15,43,25.00
2016,11,03,15,44,20.00
2016,11,03,15,45,20.40
2016,11,03,15,46,20.50
2016,11,03,15,47,20.00
2016,11,03,15,48,19.70
2016,11,03,15,49,16.00
2016,11,03,15,50,21.10
2016,11,03,15,51,17.60
2016,11,03,15,52,14.70
2016,11,03,15,53,14.20
2016,11,03,15,54,17.20
2016,11,03,15,55,19.80
2016,11,03,15,56,19.40
2016,11,03,15,57,22.80
2016,11,03,15,58,20.50
2016,11,03,15,59,21.20
2016,11,03,16,00,20.40
2016,11,03,16,01,21.60
2016,11,03,16,02,22.30
2016,11,03,16,03,15.70
2016,11,03,16,04,14.30
2016,11,03,16,05,19.60
2016,11,03,16,06,14.00
2016,11,03,16,07,14.70
2016,11,03,16,08,18.20
2016,11,03,16,09,20.20
2016,11,03,16,10,19.60
2016,11,03,16,11,11.70
2016,11,03,16,12,10.50
2016,11,03,16,13,14.20
2016,11,03,16,14,10.20
2016,11,03,16,15,11.90
2016,11,03,16,16,13.10
2016,11,03,16,17,12.90
2016,11,03,16,18,17.00
2016,11,03,16,19,10.50
2016,11,03,16,20,17.20
2016,11,03,16,21,18.00
2016,11,03,16,22,16.70
2016,11,03,16,23,19.10
2016,11,03,16,24,20.40
2016,11,03,16,25,18.10
2016,11,03,16,26,14.90
2016,11,03,16,27,16.60
2016,11,03,16,28,14.20
2016,11,03,16,29,15.50
2016,11,03,16,30,15.50
2016,11,03,16,31,14.00
2016,11,03,16,32,15.80
2016,11,03,16,33,11.80
2016,11,03,16,34,9.60
2016,11,03,16,35,12.40
2016,11,03,16,36,13.00
2016,11,03,16,37,11.10
2016,11,03,16,38,16.40
2016,11,03,16,39,18.00
2016,11,03,16,40,17.20
2016,11,03,16,41,18.30
2016,11,03,16,42,15.70
2016,11,03,16,43,19.90
2016,11,03,16,44,14.60
2016,11,03,16,45,18.40
2016,11,03,16,46,20.50
2016,11,03,16,47,19.70
2016,11,03,16,48,17.90
2016,11,03,16,49,21.30
2016,11,03,16,50,19.30
2016,11,03,16,51,18.80
2016,11,03,16,52,21.80
2016,11,03,16,53,21.80
2016,11,03,16,54,18.50
2016,11,03,16,55,20.50
2016,11,03,16,56,21.20
2016,11,03,16,57,17.90
2016,11,03,16,58,20.40
2016,11,03,16,59,18.20
2016,11,03,17,00,19.40
2016,11,03,17,01,16.90
2016,11,03,17,02,21.80
2016,11,03,17,03,16.20
2016,11,03,17,04,18.60
2016,11,03,17,05,21.40
2016,11,03,17,06,20.80
2016,11,03,17,07,22.80
2016,11,03,17,08,23.00
2016,11,03,17,09,16.60
2016,11,03,17,10,17.50
2016,11,03,17,11,15.50
2016,11,03,17,12,18.30
2016,11,03,17,13,16.90
2016,11,03,17,14,20.80
2016,11,03,17,15,21.70
2016,11,03,17,16,18.90
2016,11,03,17,17,15.50
2016,11,03,17,18,17.40
2016,11,03,17,19,16.10
2016,11,03,17,20,17.90
2016,11,03,17,21,18.00
2016,11,03,17,22,17.10
2016,11,03,17,23,18.50
2016,11,03,17,24,20.50
2016,11,03,17,25,16.00
2016,11,03,17,26,17.10
2016,11,03,17,27,13.90
2016,11,03,17,28,14.80
2016,11,03,17,29,15.10
2016,11,03,17,30,12.20